[Iaude] MPEC M70: 2022 MV1 [a=2.23,e=0.49,i=14.1,H=23.7]

mpec at marsden.cfa.harvard.edu mpec at marsden.cfa.harvard.edu
Sat Jun 25 09:07:25 EDT 2022


M.P.E.C. 2022-M70                                 Issued 2022 June 25, 13:06 UT

     The Minor Planet Electronic Circulars contain information on unusual
         minor planets and routine data on comets.  They are published
    on behalf of Division F of the International Astronomical Union by the
          Minor Planet Center, Smithsonian Astrophysical Observatory,
                          Cambridge, MA 02138, U.S.A.

             Prepared using the Tamkin Foundation Computer Network

                              MPC at CFA.HARVARD.EDU
            URL https://www.minorplanetcenter.net/    ISSN 1523-6714

                                    2022 MV1                                    


Observations:
     K22M01V* C2022 06 21.29437615 05 43.020-13 02 09.43         21.73wUEM070F52
     K22M01V  C2022 06 21.31618615 05 48.649-13 00 24.87         21.69wUEM070F52
     K22M01V  C2022 06 21.32712215 05 51.447-12 59 32.63         21.84wUEM070F52
     K22M01V  C2022 06 21.39966515 06 10.265-12 53 43.24         21.84GVEM070F52
     K22M01V  C2022 06 21.40047615 06 10.504-12 53 38.52         21.55GVEM070F52
     K22M01V ^C2022 06 22.32730615 10 31.320-11 39 31.75         21.54GVEM070568
     K22M01V ^C2022 06 22.32828615 10 31.576-11 39 27.02         21.56GVEM070568
     K22M01V ^C2022 06 22.32926315 10 31.830-11 39 22.35         21.54GVEM070568
     K22M01V ^C2022 06 22.33024115 10 32.087-11 39 17.66         21.54GVEM070568
     K22M01V KC2022 06 24.15386015 19 07.07 -09 14 06.4          21.3 VuEM070H21
     K22M01V KC2022 06 24.15820615 19 08.22 -09 13 45.5          21.5 VuEM070H21
     K22M01V KC2022 06 25.11969215 23 42.23 -07 57 44.9          21.7 VuEM070H21
     K22M01V KC2022 06 25.12403915 23 43.39 -07 57 24.3          21.6 VuEM070H21

Observer details:
568 Mauna Kea.  Observers R. Wainscoat, L. Wells, T. Burdullis.  Measurers R.
    Weryk, R. Wainscoat.  3.6-m Canada-France-Hawaii Telescope + CCD.
F52 Pan-STARRS 2, Haleakala.  Observers J. Bulger, T. Lowe, A. Schultz, I.
    Smith, K. Chambers, T. Dukes.  Measurers K. Chambers, S. Chastel, T. de
    Boer, J. Fairlamb, H. Gao, M. Huber, C.-C. Lin, E. Magnier, Y.
    Ramanjooloo, R. Wainscoat, R. Weryk.  1.8-m Ritchey-Chretien + CCD.
H21 Astronomical Research Observatory, Westfield.  Observer R. Holmes.
    Measurers T. Linder, R. Holmes, L. Horn.  1.3-m f/4.0 astrograph + CCD.

Orbital elements:
2022 MV1                                                 Earth MOID = 0.1336 AU
Epoch 2022 Aug. 9.0 TT = JDT 2459800.5                  Bell                    
M  12.34797              (2000.0)            P               Q                  
n   0.29668347     Peri.    9.53801     +0.01083962     +0.97066906             
a   2.2264203      Node   261.36427     -0.93269654     -0.07677841             
e   0.4850643      Incl.   14.05949     -0.36049920     +0.22783031             
P   3.32           H   23.79          G   0.15           U   9                  
Residuals in seconds of arc
220621 F52  0.2+  0.1+    220622 568  0.0   0.0     220624 H21  0.2+  0.2+
220621 F52  0.2+  0.1+    220622 568  0.0   0.0     220625 H21  0.1-  0.1-
220621 F52  0.2-  0.2-    220622 568  0.0   0.0     220625 H21  0.2-  0.1-
220621 F52  0.1-  0.3-    220622 568  0.0   0.0
220621 F52  0.3+  0.5+    220624 H21  0.4+  0.1+

Ephemeris:
2022 MV1                 a,e,i = 2.23, 0.49, 14                  q = 1.1465
Date    TT    R. A. (2000) Decl.     Delta      r    Elong.  Phase     V
2022 05 26    13 32 30.0 -40 02 31   0.2336  1.2047   141.6    31.5    22.4
...
2022 06 10    14 17 06.8 -27 07 34   0.1859  1.1646   140.5    33.7    21.9
...
2022 06 18    14 50 38.9 -17 23 01   0.1733  1.1523   138.9    35.4    21.7
...
2022 06 24    15 18 23.6 -09 25 45   0.1715  1.1475   136.8    37.3    21.8
2022 06 25    15 23 07.8 -08 06 36   0.1718  1.1471   136.4    37.7    21.8
2022 06 26    15 27 52.9 -06 48 13   0.1724  1.1468   136.0    38.0    21.8
...
2022 07 02    15 56 25.2 +00 34 44   0.1797  1.1472   133.2    40.3    22.0
...
2022 07 10    16 33 10.7 +08 31 36   0.1989  1.1538   129.7    42.7    22.3
...
2022 07 25    17 33 17.1 +16 51 04   0.2563  1.1841   125.8    44.1    22.9

M. P. C. Staff               (C) Copyright 2022 MPC           M.P.E.C. 2022-M70




More information about the Iaude mailing list